Weather History for Buffalo, WY

Change the Weather History Date:

Wednesday, October 17, 2012

  Actual Average Record
Temperature  
Mean Temperature 40 °F 46 °F  
Max Temperature 46 °F 57 °F 83 °F (2003)
Min Temperature 36 °F 34 °F 22 °F (2006)
Degree Days  
Heating Degree Days 24 19  
Month to date heating degree days 288  
Since 1 July heating degree days 602  
Cooling Degree Days 0 0  
Month to date cooling degree days 0  
Year to date cooling degree days 491  
Moisture  
Dew Point 17 °F    
Average Humidity 39    
Maximum Humidity 59    
Minimum Humidity 28    
Precipitation  
Precipitation 0.00 in 0.03 in 0.12 in (2011)
Month to date precipitation 0.67  
Year to date precipitation 12.25  
Sea Level Pressure  
Sea Level Pressure 29.86 in    
Wind  
Wind Speed 26 mph (NNW)    
Max Wind Speed 34 mph    
Max Gust Speed 51 mph    
Visibility 10 miles    
Events      
T = Trace of Precipitation, MM = Missing Value Source: NWS Daily Summary

Daily Weather History Graph

Daily Weather History Graph

Search for Another Location

Airport:

Trip Planner

Search our weather history database for the weather conditions in past years. The results will help you decide how hot, cold, wet, or windy it might be!

Date:

Astronomy

Oct. 17, 2012 Rise Set
Actual Time 7:25 AM MDT 6:18 PM MDT
Civil Twilight 6:55 AM MDT 6:47 PM MDT
Nautical Twilight 6:22 AM MDT 7:21 PM MDT
Astronomical Twilight 5:48 AM MDT 7:54 PM MDT
Moon 10:09 AM MDT (10/17) 7:49 PM MDT (10/17)
Length of Visible Light 11h 51m
Length of Day
10h 53m
Waxing Crescent, 7% of the Moon is Illuminated
Oct 17
Waxing Crescent
Oct 21
First Quarter
Oct 29
Full
Nov 6
Last Quarter
Nov 13
New

Hourly Weather History & Observations

Time (MDT) Temp. Windchill Dew Point Humidity Pressure Visibility Wind Dir Wind Speed Gust Speed Precip Events Conditions
12:53 AM 43.0 °F 33.1 °F 16.0 °F 34% 29.65 in 10.0 mi NNW 26.5 mph 41.4 mph N/A   Overcast
1:53 AM 42.1 °F 31.9 °F 17.1 °F 37% 29.65 in 10.0 mi NW 26.5 mph 38.0 mph N/A   Partly Cloudy
2:53 AM 41.0 °F 32.2 °F 17.1 °F 38% 29.68 in 10.0 mi NW 18.4 mph 26.5 mph N/A   Clear
3:53 AM 41.0 °F 31.1 °F 15.1 °F 35% 29.75 in 10.0 mi NW 23.0 mph 36.8 mph N/A   Clear
4:53 AM 41.0 °F 29.5 °F 14.0 °F 33% 29.76 in 10.0 mi NW 32.2 mph 36.8 mph N/A   Clear
5:53 AM 39.9 °F 28.8 °F 15.1 °F 36% 29.79 in 10.0 mi NW 27.6 mph 33.4 mph N/A   Partly Cloudy
6:53 AM 39.0 °F 28.3 °F 15.1 °F 38% 29.80 in 10.0 mi WNW 24.2 mph 34.5 mph N/A   Mostly Cloudy
7:53 AM 39.0 °F 28.8 °F 15.1 °F 38% 29.82 in 10.0 mi NW 21.9 mph 28.8 mph N/A   Clear
8:53 AM 42.1 °F 31.5 °F 12.9 °F 31% 29.82 in 10.0 mi NW 28.8 mph 41.4 mph N/A   Clear
9:53 AM 44.1 °F 34.2 °F 14.0 °F 30% 29.86 in 10.0 mi NNW 28.8 mph 39.1 mph N/A   Mostly Cloudy
10:53 AM 44.1 °F 34.2 °F 14.0 °F 30% 29.84 in 10.0 mi NNW 28.8 mph 40.3 mph N/A   Overcast
11:53 AM 44.1 °F 35.2 °F 12.9 °F 28% 29.85 in 10.0 mi NNW 23.0 mph 40.3 mph N/A   Overcast
12:53 PM 44.1 °F 34.2 °F 14.0 °F 30% 29.84 in 10.0 mi NNW 28.8 mph 46.0 mph N/A   Overcast
1:53 PM 45.0 °F 35.4 °F 19.0 °F 36% 29.83 in 10.0 mi North 28.8 mph 47.2 mph N/A   Overcast
2:53 PM 44.1 °F 34.0 °F 14.0 °F 30% 29.85 in 10.0 mi NNW 29.9 mph 49.5 mph N/A   Overcast
3:53 PM 42.1 °F 30.6 °F 16.0 °F 35% 29.86 in 10.0 mi NNW 34.5 mph 50.6 mph N/A   Overcast
4:53 PM 39.0 °F 26.8 °F 21.9 °F 50% 29.89 in 10.0 mi North 32.2 mph 44.9 mph N/A   Mostly Cloudy
5:53 PM 37.9 °F 26.8 °F 21.0 °F 51% 29.94 in 10.0 mi North 24.2 mph 39.1 mph N/A   Clear
6:53 PM 36.0 °F 25.6 °F 23.0 °F 59% 29.99 in 10.0 mi NNW 18.4 mph 28.8 mph N/A   Partly Cloudy
7:53 PM 36.0 °F 24.7 °F 23.0 °F 59% 30.01 in 10.0 mi North 21.9 mph 34.5 mph N/A   Scattered Clouds
8:53 PM 37.0 °F 25.1 °F 21.0 °F 52% 30.02 in 10.0 mi NNW 26.5 mph 40.3 mph N/A   Overcast
9:53 PM 36.0 °F 24.2 °F 19.9 °F 52% 30.05 in 10.0 mi NNW 24.2 mph 34.5 mph N/A   Overcast
10:53 PM 37.0 °F 25.6 °F 18.0 °F 46% 30.06 in 10.0 mi NNW 24.2 mph 39.1 mph N/A   Overcast
11:53 PM 37.9 °F 26.1 °F 15.1 °F 39% 30.06 in 10.0 mi NNW 27.6 mph 40.3 mph N/A   Mostly Cloudy